Home   Weather   Saarbrücken   Past weeks

Flag for Germany Past Weather in Saarbrücken, Saarland, Germany — Yesterday and Last 2 Weeks

Now
27 °F

Ice fog.


Feels Like: 18 °F
Forecast: 23 / 41 °F
Wind: 8 mph from East

Location: Saarbruecken / Ensheim

Current Time: Dec 5, 2016 at 5:46:55 am

Latest Report: Dec 5, 2016 at 5:20 am


Visibility: 0 mi

Pressure: 30.27 "Hg

Humidity: 93%

Dew Point: 25 °F

Location of SaarbrückenLocation

Past Weather in Saarbrücken — Graph

°F

Saarbrücken Temperature Yesterday

Maximum temperature yesterday: 37 °F (at 1:50 pm)
Minimum temperature yesterday: 25 °F (at 6:20 am)
Average temperature yesterday: 29 °F

High & Low Weather Summary for the Past Weeks

 TemperatureHumidityPressure
High57 °F (Nov 20, 2:50 pm)100% (Nov 21, 9:50 pm)30.54 "Hg (Nov 21, 9:50 pm)
Low19 °F (Nov 30, 6:50 am)48% (Nov 29, 1:20 pm)29.53 "Hg (Nov 20, 8:50 am)
Average40 °F81%30.09 "Hg
* Reported Nov 20 4:20 am — Dec 5 4:20 am, Saarbrücken, Weather by CustomWeather, © 2016

Note: Actual official high and low records may vary slightly from our data, if they occured in-between our weather recording intervals... More about our weather records

Advertising

Saarbrücken Weather History for the Previous 24 Hours

Scroll right to see more
 ConditionsComfort  
Time TempWeatherWind HumidityBarometerVisibility
4:20 am
Mon, Dec 5
25 °FIce fog.9 mph100%30.27 "Hg1 mi
3:50 am25 °FIce fog.9 mph100%30.27 "Hg1 mi
3:20 am25 °FPassing clouds.10 mph93%30.30 "Hg4 mi
2:50 am25 °FClear.7 mph93%30.30 "Hg6 mi
2:20 am25 °FClear.7 mph93%30.27 "Hg10 mi
1:50 am25 °FClear.7 mph93%30.27 "Hg10 mi
1:20 am25 °FClear.8 mph93%30.27 "Hg10 mi
12:50 am27 °FClear.9 mph86%30.27 "Hg10 mi
12:20 am27 °FClear.9 mph86%30.27 "Hg10 mi
11:50 pm
Sun, Dec 4
27 °FClear.9 mph86%30.27 "Hg10 mi
11:20 pm27 °FClear.9 mph86%30.27 "Hg10 mi
10:50 pm27 °FClear.9 mph86%30.27 "Hg10 mi
10:20 pm27 °FClear.10 mph86%30.27 "Hg10 mi
9:50 pm28 °FClear.9 mph80%30.27 "Hg10 mi
9:20 pm28 °FClear.10 mph80%30.27 "Hg10 mi
8:50 pm28 °FClear.10 mph80%30.27 "Hg10 mi
8:20 pm28 °FClear.10 mph80%30.27 "Hg10 mi
7:50 pm28 °FClear.12 mph86%30.27 "Hg10 mi
7:20 pm30 °FClear.12 mph80%30.27 "Hg10 mi
6:50 pm28 °FPassing clouds.12 mph86%30.27 "HgN/A
6:20 pm28 °FClear.9 mph86%30.27 "Hg10 mi
5:50 pm28 °FClear.9 mph86%30.27 "Hg10 mi
5:20 pm30 °FClear.8 mph80%30.27 "Hg10 mi
4:50 pm30 °FClear.8 mph80%30.24 "Hg10 mi
4:20 pm32 °FSunny.9 mph75%30.24 "Hg10 mi
3:50 pm34 °FSunny.10 mph70%30.24 "Hg10 mi
3:20 pm36 °FChilly.13 mph70%30.24 "HgN/A
2:50 pm36 °FSunny.13 mph70%30.24 "Hg10 mi
2:20 pm37 °FSunny.13 mph65%30.24 "Hg10 mi
1:50 pm37 °FSunny.10 mph65%30.24 "Hg10 mi
1:20 pm36 °FSunny.10 mph70%30.24 "Hg10 mi
12:50 pm36 °FSunny.12 mph70%30.24 "Hg10 mi
12:20 pm34 °FPassing clouds.12 mph70%30.24 "HgN/A
11:50 am32 °FSunny.13 mph75%30.24 "Hg10 mi
11:20 am32 °FSunny.12 mph75%30.27 "Hg10 mi
10:50 am30 °FSunny.12 mph80%30.27 "Hg10 mi
10:20 am30 °FPassing clouds.10 mph75%30.27 "HgN/A
9:50 am28 °FSunny.9 mph80%30.27 "Hg10 mi
9:20 am27 °FPassing clouds.8 mph86%30.24 "HgN/A
8:50 am27 °FPassing clouds.6 mph80%30.24 "HgN/A
8:20 am25 °FPassing clouds.8 mph86%30.24 "HgN/A
7:50 am27 °FClear.12 mph80%30.24 "Hg10 mi
7:20 am25 °FClear.10 mph86%30.24 "Hg10 mi
6:50 am25 °FClear.9 mph86%30.21 "Hg10 mi
6:20 am25 °FClear.9 mph86%30.21 "Hg10 mi
5:50 am27 °FClear.9 mph80%30.21 "Hg10 mi
5:20 am27 °FClear.10 mph80%30.21 "Hg10 mi
Weather by CustomWeather, © 2016

See weather overviewHow to use our weather pages